STARLINK-32091, 59684

Orbit data source: Space-Track

STARLINK-32091, 59684 is a payload satellite owned by SpaceX/Seattle (US) in LEO that was launched on Wed, 08 May 2024 UTC via an FALCON 9 launch vehicle from the Air Force Eastern Test Range (AFETR). Payload-class satellites include a variety of spacecraft equipped with specific instruments for various scientific and technological missions. These include communications satellites like Starlink; space stations such as the ISS; scientific satellites like the Hubble; Earth observation satellites from companies like Planet Labs, Umbra, and HawkEye 360; GPS; miniature CubeSats for education and research; and military/defense satellites.

Loading next visibility...
Identifier
59684, 2024-086C
Orbit
LEO
Country
Flag of USUS
Related business
Manufacturer
SpaceX/Seattle
Mission
Operational Commercial Communications
Bus & Motor
STARLINK V2M, Unknown motor
Mass
730 kg wet, ~700 kg dry
Launch date (UTC)
2024-05-08 (2 years ago)
Launch vehicle
FALCON 9
Launch site
Air Force Eastern Test Range (AFETR)
Object type
Payload
Rocket body
Debris
Shape & HBR
Box + 2 Pan, 17.7 m
Radar Cross Section
33.884 m², Large (>1 m²)

Expand to show TLE details & history
Last TLE update: 2 days ago

TLE from 2 days ago
0 STARLINK-32091
1 59684U 24086C   26171.11614048 -.00000182  00000-0  29266-5 0  9996
2 59684  43.0029 193.9523 0001277 278.8168  81.2539 15.27578267119875
Epoch: 2026-06-20T02:47Z
TLE epoch observation values (Epoch: 2026-06-20T02:47:14.537Z)
Latitude
-0.00002°
Longitude
-116.19368°
Altitude
482.697 km
Speed
7.626 km/s
True Right ascension
12h 55m 48s
True Declination
0° 00' 00"
Sunlit
Object was in daylight at epoch
Visualization orbit readout
Latitude
Unknown
Longitude
Unknown
Altitude
Unknown
Speed
Unknown
Apparent Right ascension
Unknown
Apparent Declination
Unknown
Sunlit
N/A
Visualization observer readout
Local Sidereal Time
21:26:33
Azimuth
Unknown
Elevation
Unknown
Doppler factor
Unknown
Orbital elements
Apogee altitude
485.875 km
Perigee altitude
484.123 km
Semi-major axis
6,863.136 km
Eccentricity
0.00013
Inclination
43.0029°
RAAN
193.9523°
Arg. of periapsis
278.8168°
True anomaly
81.26836°
Mean anomaly
81.2539°
Eccentric anomaly
81.26113°
Mean motion
3.81733 °/min
Orbital period
94.31 mins
BSTAR
0.0000029266
Loading maneuver chart data...
Computing Atmospheric mass density...
Loading historical data...
Loading historical data...
Loading historical data...
Loading historical data...
Loading historical data...
Loading historical data...
Loading historical data...

Documentation

Showing up to 5 results
|